| time (UTC) | temp F | wind direction | speed MPH | gust MPH | rain 1hr in | rain 24hr in | rain mn in | humidity % | barometer mb |
| 20260510115453 | 42 | 334 | 6.0 | 8.0 | 0.00 | 0.00 | 0.00 | 70 | 982.4 |
| 20260510114953 | 41 | 339 | 4.0 | 5.0 | 0.00 | 0.00 | 0.00 | 71 | 982.4 |
| 20260510114453 | 41 | 345 | 4.0 | 6.0 | 0.00 | 0.00 | 0.00 | 72 | 982.4 |
| 20260510113953 | 41 | 349 | 3.0 | 5.0 | 0.00 | 0.00 | 0.00 | 72 | 982.1 |
| 20260510113453 | 40 | 334 | 3.0 | 5.0 | 0.00 | 0.00 | 0.00 | 72 | 982.1 |
| 20260510112952 | 40 | 342 | 3.0 | 4.0 | 0.00 | 0.00 | 0.00 | 73 | 982.0 |
| 20260510112452 | 39 | 337 | 4.0 | 5.0 | 0.00 | 0.00 | 0.00 | 73 | 981.9 |
| 20260510111952 | 39 | 344 | 4.0 | 6.0 | 0.00 | 0.00 | 0.00 | 74 | 981.9 |
| 20260510111452 | 39 | 341 | 2.0 | 5.0 | 0.00 | 0.00 | 0.00 | 75 | 981.9 |
| 20260510110952 | 38 | 316 | 3.0 | 4.0 | 0.00 | 0.00 | 0.00 | 75 | 981.8 |
| 20260510110452 | 38 | 315 | 3.0 | 5.0 | 0.00 | 0.00 | 0.00 | 75 | 981.7 |
| 20260510105952 | 38 | 320 | 3.0 | 5.0 | 0.00 | 0.00 | 0.00 | 75 | 981.7 |
| 20260510105451 | 37 | 300 | 2.0 | 3.0 | 0.00 | 0.00 | 0.00 | 77 | 981.7 |
| 20260510104951 | 36 | 261 | 1.0 | 2.0 | 0.00 | 0.00 | 0.00 | 78 | 981.7 |
| 20260510104451 | 36 | 265 | 2.0 | 2.0 | 0.00 | 0.00 | 0.00 | 79 | 981.5 |
| 20260510103429 | 35 | 261 | 1.0 | 2.0 | 0.00 | 0.00 | 0.00 | 80 | 981.3 |
| 20260510102929 | 35 | 289 | 1.0 | 2.0 | 0.00 | 0.00 | 0.00 | 80 | 981.2 |
| 20260510101908 | 35 | 0 | 0.0 | 0.0 | 0.00 | 0.00 | 0.00 | 80 | 981.0 |
| 20260510101407 | 35 | 247 | 2.0 | 2.0 | 0.00 | 0.00 | 0.00 | 80 | 980.9 |
| 20260510100907 | 35 | 248 | 1.0 | 2.0 | 0.00 | 0.00 | 0.00 | 80 | 980.8 |
| 20260510095846 | 34 | 252 | 2.0 | 2.0 | 0.00 | 0.00 | 0.00 | 83 | 980.7 |
| 20260510095346 | 34 | 0 | 0.0 | 0.0 | 0.00 | 0.00 | 0.00 | 83 | 980.6 |
| 20260510094846 | 34 | 0 | 0.0 | 0.0 | 0.00 | 0.00 | 0.00 | 83 | 980.5 |
| 20260510094345 | 34 | 0 | 0.0 | 0.0 | 0.00 | 0.00 | 0.00 | 83 | 980.3 |
| 20260510093845 | 34 | 0 | 0.0 | 0.0 | 0.00 | 0.00 | 0.00 | 83 | 980.3 |
| 20260510093345 | 35 | 0 | 0.0 | 0.0 | 0.00 | 0.00 | 0.00 | 83 | 980.1 |
| 20260510092845 | 35 | 0 | 0.0 | 0.0 | 0.00 | 0.00 | 0.00 | 83 | 980.0 |
| 20260510092344 | 35 | 0 | 0.0 | 0.0 | 0.00 | 0.00 | 0.00 | 83 | 980.0 |
| 20260510091844 | 35 | 228 | 1.0 | 2.0 | 0.00 | 0.00 | 0.00 | 82 | 979.9 |
| 20260510091344 | 35 | 242 | 2.0 | 2.0 | 0.00 | 0.00 | 0.00 | 82 | 979.8 |
| 20260510090844 | 35 | 246 | 1.0 | 2.0 | 0.00 | 0.00 | 0.00 | 81 | 979.7 |
| 20260510085305 | 36 | 235 | 1.0 | 1.0 | 0.00 | 0.00 | 0.00 | 80 | 979.4 |
| 20260510084801 | 36 | 250 | 1.0 | 2.0 | 0.00 | 0.00 | 0.00 | 79 | 979.3 |
| 20260510084301 | 36 | 0 | 0.0 | 0.0 | 0.00 | 0.00 | 0.00 | 80 | 979.1 |
| 20260510083801 | 36 | 240 | 1.0 | 2.0 | 0.00 | 0.00 | 0.00 | 79 | 979.1 |
| 20260510083301 | 36 | 250 | 1.0 | 2.0 | 0.00 | 0.00 | 0.00 | 79 | 979.0 |
| 20260510082801 | 36 | 0 | 0.0 | 0.0 | 0.00 | 0.00 | 0.00 | 79 | 979.0 |
| 20260510082301 | 37 | 0 | 0.0 | 0.0 | 0.00 | 0.00 | 0.00 | 78 | 978.9 |
| 20260510081801 | 37 | 0 | 0.0 | 0.0 | 0.00 | 0.00 | 0.00 | 77 | 978.9 |
| 20260510075657 | 39 | 259 | 2.0 | 2.0 | 0.00 | 0.00 | 0.00 | 74 | 978.8 |
| 20260510075157 | 39 | 260 | 2.0 | 2.0 | 0.00 | 0.00 | 0.00 | 73 | 978.7 |
| 20260510074656 | 39 | 261 | 2.0 | 2.0 | 0.00 | 0.00 | 0.00 | 72 | 978.6 |
| 20260510074156 | 40 | 288 | 2.0 | 3.0 | 0.00 | 0.00 | 0.00 | 72 | 978.6 |
| 20260510073656 | 40 | 287 | 1.0 | 2.0 | 0.00 | 0.00 | 0.00 | 72 | 978.5 |
| 20260510073155 | 40 | 268 | 1.0 | 2.0 | 0.00 | 0.00 | 0.00 | 71 | 978.5 |
| 20260510072655 | 40 | 0 | 0.0 | 0.0 | 0.00 | 0.00 | 0.00 | 71 | 978.3 |
| 20260510072155 | 41 | 308 | 1.0 | 3.0 | 0.00 | 0.00 | 0.00 | 70 | 978.3 |
| 20260510071655 | 41 | 0 | 0.0 | 0.0 | 0.00 | 0.00 | 0.00 | 70 | 978.3 |
| 20260510070112 | 42 | 34 | 2.0 | 4.0 | 0.00 | 0.00 | 0.00 | 67 | 978.3 |
| 20260510065612 | 42 | 341 | 2.0 | 3.0 | 0.00 | 0.00 | 0.00 | 67 | 978.3 |
| 20260510065112 | 42 | 2 | 1.0 | 3.0 | 0.00 | 0.00 | 0.00 | 66 | 978.3 |
| 20260510064612 | 43 | 21 | 3.0 | 5.0 | 0.00 | 0.00 | 0.00 | 65 | 978.0 |
| 20260510064112 | 43 | 14 | 2.0 | 4.0 | 0.00 | 0.00 | 0.00 | 64 | 978.0 |
| 20260510063611 | 43 | 358 | 2.0 | 3.0 | 0.00 | 0.00 | 0.00 | 64 | 978.0 |
| 20260510062550 | 44 | 7 | 3.0 | 5.0 | 0.00 | 0.00 | 0.00 | 63 | 978.2 |
| 20260510061007 | 44 | 26 | 3.0 | 5.0 | 0.00 | 0.00 | 0.00 | 64 | 978.0 |
| 20260510055946 | 44 | 344 | 3.0 | 6.0 | 0.00 | 0.00 | 0.00 | 66 | 978.0 |
| 20260510053842 | 45 | 321 | 2.0 | 3.0 | 0.00 | 0.00 | 0.00 | 64 | 977.7 |
| 20260510053342 | 46 | 27 | 2.0 | 6.0 | 0.00 | 0.00 | 0.00 | 65 | 977.6 |
| 20260510052841 | 46 | 344 | 4.0 | 5.0 | 0.00 | 0.00 | 0.00 | 65 | 977.5 |
| 20260510052341 | 46 | 1 | 2.0 | 4.0 | 0.00 | 0.00 | 0.00 | 64 | 977.5 |
| 20260510051841 | 46 | 339 | 2.0 | 4.0 | 0.00 | 0.00 | 0.00 | 64 | 977.4 |
| 20260510051340 | 46 | 329 | 1.0 | 4.0 | 0.00 | 0.00 | 0.00 | 65 | 977.3 |
| 20260510050840 | 46 | 301 | 1.0 | 2.0 | 0.00 | 0.00 | 0.00 | 66 | 977.2 |
| 20260510050340 | 46 | 290 | 1.0 | 3.0 | 0.00 | 0.00 | 0.00 | 68 | 977.1 |
| 20260510045840 | 46 | 345 | 3.0 | 4.0 | 0.00 | 0.00 | 0.00 | 69 | 977.1 |
| 20260510045340 | 46 | 319 | 2.0 | 3.0 | 0.00 | 0.00 | 0.00 | 69 | 977.1 |
| 20260510044317 | 46 | 277 | 1.0 | 1.0 | 0.00 | 0.00 | 0.00 | 69 | 976.9 |
| 20260510043817 | 46 | 195 | 1.0 | 2.0 | 0.00 | 0.00 | 0.00 | 69 | 976.8 |
| 20260510043317 | 47 | 256 | 1.0 | 1.0 | 0.00 | 0.00 | 0.00 | 69 | 976.8 |
| 20260510042817 | 47 | 330 | 3.0 | 3.0 | 0.00 | 0.00 | 0.00 | 68 | 976.7 |
| 20260510042317 | 47 | 261 | 0.0 | 1.0 | 0.00 | 0.00 | 0.00 | 67 | 976.5 |
| 20260510041817 | 48 | 201 | 1.0 | 2.0 | 0.00 | 0.00 | 0.00 | 66 | 976.3 |
| 20260510041316 | 48 | 87 | 1.0 | 2.0 | 0.00 | 0.00 | 0.00 | 65 | 976.1 |
| 20260510040816 | 48 | 23 | 1.0 | 2.0 | 0.00 | 0.00 | 0.00 | 65 | 976.2 |
| 20260510040316 | 48 | 150 | 2.0 | 3.0 | 0.00 | 0.00 | 0.00 | 64 | 976.3 |
| 20260510035816 | 48 | 11 | 1.0 | 2.0 | 0.00 | 0.00 | 0.00 | 64 | 976.2 |
| 20260510035316 | 49 | 351 | 1.0 | 3.0 | 0.00 | 0.00 | 0.00 | 63 | 976.3 |
| 20260510034816 | 49 | 352 | 2.0 | 4.0 | 0.00 | 0.00 | 0.00 | 62 | 976.0 |
| 20260510034315 | 49 | 22 | 3.0 | 5.0 | 0.00 | 0.00 | 0.00 | 62 | 975.9 |
| 20260510033815 | 49 | 39 | 3.0 | 4.0 | 0.00 | 0.00 | 0.00 | 63 | 976.2 |
| 20260510033315 | 50 | 343 | 3.0 | 5.0 | 0.00 | 0.00 | 0.00 | 63 | 976.1 |
| 20260510032815 | 50 | 1 | 2.0 | 4.0 | 0.00 | 0.00 | 0.00 | 63 | 975.7 |
| 20260510032315 | 50 | 48 | 3.0 | 4.0 | 0.00 | 0.00 | 0.00 | 62 | 975.7 |
| 20260510031814 | 50 | 116 | 1.0 | 2.0 | 0.00 | 0.00 | 0.00 | 63 | 975.9 |
| 20260510031314 | 50 | 341 | 3.0 | 4.0 | 0.00 | 0.00 | 0.00 | 62 | 975.7 |
| 20260510030814 | 51 | 49 | 2.0 | 3.0 | 0.00 | 0.00 | 0.00 | 63 | 975.1 |
| 20260510030314 | 51 | 102 | 2.0 | 4.0 | 0.00 | 0.00 | 0.00 | 61 | 975.1 |
| 20260510025253 | 52 | 137 | 3.0 | 4.0 | 0.00 | 0.00 | 0.00 | 61 | 975.2 |
| 20260510024753 | 52 | 345 | 1.0 | 2.0 | 0.00 | 0.00 | 0.00 | 61 | 975.2 |
| 20260510024252 | 52 | 37 | 3.0 | 6.0 | 0.00 | 0.00 | 0.00 | 61 | 975.2 |
| 20260510023752 | 52 | 330 | 2.0 | 3.0 | 0.00 | 0.00 | 0.00 | 61 | 975.2 |
| 20260510023252 | 53 | 348 | 3.0 | 4.0 | 0.00 | 0.00 | 0.00 | 62 | 975.1 |
| 20260510022230 | 53 | 25 | 3.0 | 4.0 | 0.00 | 0.00 | 0.00 | 61 | 974.6 |
| 20260510021730 | 53 | 38 | 3.0 | 5.0 | 0.00 | 0.00 | 0.00 | 61 | 974.5 |
| 20260510021229 | 53 | 44 | 3.0 | 5.0 | 0.00 | 0.00 | 0.00 | 63 | 974.4 |
| 20260510020729 | 54 | 29 | 3.0 | 6.0 | 0.00 | 0.00 | 0.00 | 65 | 974.2 |
| 20260510020229 | 54 | 11 | 1.0 | 3.0 | 0.00 | 0.00 | 0.00 | 65 | 974.4 |
| 20260510015728 | 54 | 19 | 2.0 | 4.0 | 0.00 | 0.00 | 0.00 | 64 | 974.3 |
| 20260510015227 | 54 | 0 | 3.0 | 5.0 | 0.00 | 0.00 | 0.00 | 63 | 974.1 |
| 20260510013124 | 55 | 33 | 1.0 | 2.0 | 0.00 | 0.00 | 0.00 | 67 | 973.6 |
| 20260510012102 | 55 | 0 | 4.0 | 5.0 | 0.00 | 0.00 | 0.00 | 68 | 973.5 |
| 20260510011602 | 55 | 343 | 1.0 | 3.0 | 0.00 | 0.00 | 0.00 | 75 | 973.3 |
| 20260510011102 | 55 | 0 | 0.0 | 0.0 | 0.00 | 0.00 | 0.00 | 80 | 973.3 |
| 20260510010602 | 55 | 34 | 1.0 | 2.0 | 0.00 | 0.00 | 0.00 | 80 | 973.1 |
| 20260510005040 | 55 | 241 | 1.0 | 1.0 | 0.00 | 0.00 | 0.00 | 80 | 972.8 |
| 20260510004540 | 55 | 252 | 2.0 | 2.0 | 0.00 | 0.00 | 0.00 | 80 | 972.7 |
| 20260510004040 | 55 | 242 | 1.0 | 1.0 | 0.00 | 0.00 | 0.00 | 80 | 972.7 |
| 20260510003540 | 55 | 266 | 2.0 | 3.0 | 0.00 | 0.00 | 0.00 | 80 | 972.6 |
| 20260510003040 | 55 | 0 | 0.0 | 0.0 | 0.00 | 0.00 | 0.00 | 80 | 972.5 |
| 20260510002540 | 56 | 327 | 1.0 | 2.0 | 0.00 | 0.00 | 0.00 | 80 | 972.3 |
| 20260510002039 | 56 | 0 | 0.0 | 0.0 | 0.00 | 0.00 | 0.00 | 79 | 972.2 |
| 20260510001539 | 56 | 0 | 0.0 | 0.0 | 0.00 | 0.00 | 0.00 | 78 | 972.1 |
| 20260510001039 | 56 | 38 | 2.0 | 2.0 | 0.00 | 0.00 | 0.00 | 77 | 971.9 |
| 20260510000539 | 56 | 0 | 0.0 | 0.0 | 0.00 | 0.00 | 0.00 | 77 | 971.7 |
| 20260510000038 | 56 | 250 | 2.0 | 3.0 | 0.00 | 0.00 | 0.00 | 76 | 971.6 |
| 20260509235016 | 57 | 225 | 1.0 | 3.0 | 0.00 | 0.00 | 0.00 | 76 | 971.6 |
| 20260509234516 | 57 | 291 | 2.0 | 4.0 | 0.00 | 0.00 | 0.00 | 75 | 971.6 |
| 20260509234016 | 57 | 255 | 2.0 | 7.0 | 0.00 | 0.00 | 0.00 | 75 | 971.5 |
| 20260509233515 | 58 | 249 | 4.0 | 6.0 | 0.00 | 0.00 | 0.00 | 74 | 971.4 |
| 20260509233015 | 58 | 250 | 4.0 | 6.0 | 0.00 | 0.00 | 0.00 | 73 | 971.2 |
| 20260509231953 | 59 | 248 | 3.0 | 4.0 | 0.00 | 0.00 | 0.00 | 73 | 971.2 |
| 20260509231452 | 59 | 259 | 3.0 | 5.0 | 0.00 | 0.00 | 0.00 | 73 | 971.2 |
| 20260509230952 | 59 | 247 | 3.0 | 4.0 | 0.00 | 0.00 | 0.00 | 73 | 971.1 |
| 20260509230452 | 59 | 251 | 3.0 | 5.0 | 0.00 | 0.00 | 0.00 | 72 | 971.0 |
| 20260509225431 | 60 | 210 | 2.0 | 3.0 | 0.00 | 0.00 | 0.00 | 71 | 970.8 |
| 20260509224931 | 59 | 216 | 1.0 | 3.0 | 0.00 | 0.00 | 0.00 | 72 | 970.8 |
| 20260509224430 | 59 | 246 | 2.0 | 4.0 | 0.00 | 0.00 | 0.00 | 72 | 970.7 |
| 20260509223409 | 58 | 249 | 4.0 | 6.0 | 0.00 | 0.00 | 0.00 | 72 | 970.5 |
| 20260509222909 | 58 | 226 | 2.0 | 4.0 | 0.00 | 0.00 | 0.00 | 74 | 970.5 |
| 20260509222409 | 58 | 267 | 5.0 | 6.0 | 0.00 | 0.00 | 0.00 | 73 | 970.4 |
| 20260509221908 | 57 | 243 | 4.0 | 5.0 | 0.00 | 0.00 | 0.00 | 73 | 970.4 |
| 20260509220325 | 55 | 266 | 5.0 | 7.0 | 0.00 | 0.00 | 0.00 | 75 | 970.4 |
| 20260509215825 | 55 | 256 | 3.0 | 6.0 | 0.00 | 0.00 | 0.00 | 77 | 970.4 |
| 20260509215325 | 54 | 257 | 4.0 | 6.0 | 0.00 | 0.00 | 0.00 | 78 | 970.4 |
| 20260509214304 | 53 | 199 | 3.0 | 6.0 | 0.00 | 0.00 | 0.00 | 81 | 970.6 |
| 20260509213803 | 53 | 266 | 3.0 | 8.0 | 0.00 | 0.00 | 0.00 | 81 | 970.7 |
| 20260509213303 | 53 | 230 | 4.0 | 6.0 | 0.00 | 0.00 | 0.00 | 81 | 970.8 |
| 20260509212803 | 53 | 268 | 5.0 | 11.0 | 0.00 | 0.00 | 0.00 | 81 | 970.8 |
| 20260509211742 | 53 | 257 | 2.0 | 4.0 | 0.00 | 0.00 | 0.00 | 81 | 970.8 |
| 20260509211242 | 52 | 240 | 3.0 | 6.0 | 0.00 | 0.00 | 0.00 | 82 | 970.8 |
| 20260509210741 | 52 | 259 | 6.0 | 8.0 | 0.00 | 0.00 | 0.00 | 81 | 970.7 |
| 20260509210241 | 52 | 256 | 5.0 | 7.0 | 0.00 | 0.00 | 0.00 | 82 | 970.8 |
| 20260509205740 | 51 | 258 | 4.0 | 7.0 | 0.00 | 0.00 | 0.00 | 84 | 970.8 |
| 20260509204719 | 51 | 259 | 4.0 | 6.0 | 0.00 | 0.00 | 0.00 | 83 | 970.8 |
| 20260509204219 | 51 | 263 | 7.0 | 10.0 | 0.00 | 0.00 | 0.00 | 83 | 971.1 |
| 20260509203719 | 51 | 271 | 8.0 | 13.0 | 0.00 | 0.00 | 0.00 | 84 | 971.0 |
| 20260509203219 | 52 | 271 | 6.0 | 10.0 | 0.00 | 0.00 | 0.00 | 82 | 971.5 |
| 20260509202718 | 55 | 313 | 6.0 | 9.0 | 0.00 | 0.00 | 0.00 | 77 | 971.7 |
| 20260509202218 | 58 | 341 | 11.0 | 16.0 | 0.00 | 0.00 | 0.00 | 70 | 971.7 |
| 20260509201156 | 59 | 258 | 10.0 | 15.0 | 0.00 | 0.00 | 0.00 | 71 | 969.8 |
| 20260509200656 | 59 | 265 | 8.0 | 17.0 | 0.00 | 0.00 | 0.00 | 71 | 969.9 |
| 20260509200156 | 59 | 250 | 8.0 | 11.0 | 0.00 | 0.00 | 0.00 | 71 | 969.9 |
| 20260509195656 | 59 | 252 | 10.0 | 17.0 | 0.00 | 0.00 | 0.00 | 71 | 970.0 |
| 20260509195156 | 59 | 265 | 13.0 | 24.0 | 0.00 | 0.00 | 0.00 | 71 | 970.0 |
| 20260509194655 | 59 | 242 | 10.0 | 25.0 | 0.00 | 0.00 | 0.00 | 71 | 969.9 |
| 20260509193634 | 59 | 255 | 7.0 | 11.0 | 0.00 | 0.00 | 0.00 | 71 | 970.0 |
| 20260509193134 | 59 | 247 | 5.0 | 8.0 | 0.00 | 0.00 | 0.00 | 71 | 970.0 |
| 20260509192634 | 59 | 253 | 11.0 | 17.0 | 0.00 | 0.00 | 0.00 | 71 | 969.8 |
| 20260509192134 | 59 | 245 | 7.0 | 10.0 | 0.00 | 0.00 | 0.00 | 71 | 970.0 |
| 20260509191633 | 59 | 228 | 5.0 | 11.0 | 0.00 | 0.00 | 0.00 | 72 | 970.2 |
| 20260509190612 | 58 | 243 | 6.0 | 11.0 | 0.00 | 0.00 | 0.00 | 72 | 970.3 |
| 20260509190112 | 59 | 231 | 3.0 | 6.0 | 0.00 | 0.00 | 0.00 | 72 | 970.3 |
| 20260509185612 | 59 | 223 | 6.0 | 11.0 | 0.00 | 0.00 | 0.00 | 72 | 970.2 |
| 20260509184551 | 58 | 264 | 9.0 | 12.0 | 0.00 | 0.00 | 0.00 | 72 | 970.3 |
| 20260509183530 | 58 | 229 | 4.0 | 7.0 | 0.00 | 0.00 | 0.00 | 73 | 970.5 |
| 20260509183029 | 58 | 225 | 5.0 | 9.0 | 0.00 | 0.00 | 0.00 | 73 | 970.6 |
| 20260509182529 | 58 | 239 | 4.0 | 9.0 | 0.00 | 0.00 | 0.00 | 75 | 970.7 |
| 20260509182029 | 57 | 192 | 5.0 | 7.0 | 0.00 | 0.00 | 0.00 | 75 | 970.9 |
| 20260509181529 | 58 | 258 | 6.0 | 12.0 | 0.00 | 0.00 | 0.00 | 75 | 971.1 |
| 20260509181029 | 58 | 211 | 3.0 | 5.0 | 0.00 | 0.00 | 0.00 | 74 | 971.3 |
| 20260509180529 | 58 | 255 | 3.0 | 5.0 | 0.00 | 0.00 | 0.00 | 73 | 971.3 |
| 20260509180028 | 59 | 245 | 5.0 | 10.0 | 0.00 | 0.00 | 0.00 | 73 | 971.1 |
| 20260509175528 | 59 | 252 | 5.0 | 8.0 | 0.00 | 0.00 | 0.00 | 73 | 970.9 |
| 20260509175027 | 60 | 262 | 5.0 | 8.0 | 0.00 | 0.00 | 0.00 | 73 | 970.9 |
| 20260509174526 | 59 | 196 | 5.0 | 9.0 | 0.00 | 0.00 | 0.00 | 72 | 970.9 |
| 20260509174026 | 59 | 193 | 4.0 | 7.0 | 0.00 | 0.00 | 0.00 | 73 | 970.8 |
| 20260509173526 | 59 | 186 | 7.0 | 12.0 | 0.00 | 0.00 | 0.00 | 74 | 970.7 |
| 20260509173025 | 60 | 190 | 5.0 | 10.0 | 0.00 | 0.00 | 0.00 | 72 | 970.8 |
| 20260509172525 | 60 | 249 | 6.0 | 12.0 | 0.00 | 0.00 | 0.00 | 73 | 970.9 |
| 20260509172025 | 60 | 241 | 6.0 | 10.0 | 0.00 | 0.00 | 0.00 | 73 | 970.9 |
| 20260509171525 | 60 | 206 | 7.0 | 11.0 | 0.00 | 0.00 | 0.00 | 72 | 971.2 |
| 20260509171025 | 60 | 247 | 5.0 | 8.0 | 0.00 | 0.00 | 0.00 | 73 | 971.3 |
| 20260509170525 | 60 | 253 | 5.0 | 9.0 | 0.00 | 0.00 | 0.00 | 72 | 971.2 |
| 20260509170024 | 60 | 210 | 4.0 | 10.0 | 0.00 | 0.00 | 0.00 | 71 | 971.2 |
| 20260509165524 | 60 | 252 | 4.0 | 7.0 | 0.00 | 0.00 | 0.00 | 72 | 971.3 |
| 20260509164503 | 60 | 201 | 4.0 | 6.0 | 0.00 | 0.00 | 0.00 | 72 | 971.6 |
| 20260509164003 | 60 | 197 | 3.0 | 6.0 | 0.00 | 0.00 | 0.00 | 72 | 971.6 |
| 20260509162942 | 60 | 265 | 3.0 | 8.0 | 0.00 | 0.00 | 0.00 | 70 | 971.8 |
| 20260509162441 | 60 | 207 | 4.0 | 7.0 | 0.00 | 0.00 | 0.00 | 71 | 971.9 |
| 20260509161940 | 59 | 198 | 6.0 | 11.0 | 0.00 | 0.00 | 0.00 | 71 | 971.9 |
| 20260509160919 | 59 | 169 | 6.0 | 8.0 | 0.00 | 0.00 | 0.00 | 72 | 972.3 |
| 20260509155858 | 59 | 238 | 5.0 | 8.0 | 0.00 | 0.00 | 0.00 | 71 | 972.8 |
| 20260509155357 | 58 | 271 | 4.0 | 6.0 | 0.00 | 0.00 | 0.00 | 71 | 972.7 |
| 20260509154857 | 58 | 230 | 3.0 | 5.0 | 0.00 | 0.00 | 0.00 | 72 | 972.7 |
| 20260509154357 | 59 | 215 | 3.0 | 4.0 | 0.00 | 0.00 | 0.00 | 72 | 972.8 |
| 20260509153856 | 59 | 197 | 4.0 | 7.0 | 0.00 | 0.00 | 0.00 | 71 | 972.9 |
| 20260509153356 | 59 | 221 | 4.0 | 7.0 | 0.00 | 0.00 | 0.00 | 71 | 972.8 |
| 20260509152855 | 59 | 232 | 3.0 | 5.0 | 0.00 | 0.00 | 0.00 | 72 | 972.7 |
| 20260509152355 | 59 | 243 | 3.0 | 6.0 | 0.00 | 0.00 | 0.00 | 71 | 972.7 |
| 20260509151855 | 59 | 247 | 3.0 | 4.0 | 0.00 | 0.00 | 0.00 | 73 | 972.7 |
| 20260509151355 | 58 | 182 | 6.0 | 9.0 | 0.00 | 0.00 | 0.00 | 73 | 972.6 |
| 20260509150854 | 58 | 199 | 3.0 | 5.0 | 0.00 | 0.00 | 0.00 | 74 | 972.6 |
| 20260509150354 | 58 | 183 | 5.0 | 8.0 | 0.00 | 0.00 | 0.00 | 74 | 972.8 |
| 20260509145853 | 57 | 254 | 3.0 | 5.0 | 0.00 | 0.00 | 0.00 | 75 | 972.9 |
| 20260509145353 | 57 | 239 | 3.0 | 5.0 | 0.00 | 0.00 | 0.00 | 75 | 972.8 |
| 20260509144853 | 57 | 246 | 5.0 | 11.0 | 0.00 | 0.00 | 0.00 | 74 | 972.8 |
| 20260509144353 | 57 | 239 | 3.0 | 5.0 | 0.00 | 0.00 | 0.00 | 74 | 972.7 |
| 20260509143853 | 57 | 222 | 3.0 | 6.0 | 0.00 | 0.00 | 0.00 | 74 | 972.7 |
| 20260509143353 | 56 | 193 | 3.0 | 5.0 | 0.00 | 0.00 | 0.00 | 75 | 972.7 |
| 20260509142852 | 56 | 182 | 5.0 | 9.0 | 0.00 | 0.00 | 0.00 | 75 | 972.8 |
| 20260509142351 | 55 | 225 | 3.0 | 6.0 | 0.00 | 0.00 | 0.00 | 76 | 972.9 |
| 20260509141851 | 55 | 256 | 4.0 | 9.0 | 0.00 | 0.00 | 0.00 | 77 | 972.9 |
| 20260509141351 | 54 | 189 | 3.0 | 7.0 | 0.00 | 0.00 | 0.00 | 79 | 973.0 |
| 20260509140329 | 53 | 266 | 8.0 | 12.0 | 0.00 | 0.00 | 0.00 | 79 | 973.0 |
| 20260509135829 | 53 | 241 | 6.0 | 8.0 | 0.00 | 0.00 | 0.00 | 80 | 973.1 |
| 20260509134806 | 52 | 269 | 3.0 | 6.0 | 0.00 | 0.00 | 0.00 | 83 | 973.2 |
| 20260509134306 | 52 | 268 | 6.0 | 9.0 | 0.00 | 0.00 | 0.00 | 83 | 973.2 |
| 20260509133806 | 52 | 263 | 5.0 | 7.0 | 0.00 | 0.00 | 0.00 | 84 | 973.2 |
| 20260509133306 | 51 | 245 | 5.0 | 10.0 | 0.00 | 0.00 | 0.00 | 85 | 973.3 |
| 20260509132806 | 51 | 253 | 6.0 | 11.0 | 0.00 | 0.00 | 0.00 | 86 | 973.3 |
| 20260509132307 | 51 | 258 | 4.0 | 6.0 | 0.00 | 0.00 | 0.00 | 86 | 973.3 |
| 20260509131244 | 50 | 225 | 4.0 | 7.0 | 0.00 | 0.00 | 0.00 | 88 | 973.3 |
| 20260509130744 | 50 | 260 | 6.0 | 9.0 | 0.00 | 0.00 | 0.00 | 89 | 973.4 |
| 20260509130243 | 50 | 271 | 7.0 | 8.0 | 0.00 | 0.00 | 0.00 | 90 | 973.4 |
| 20260509125743 | 49 | 262 | 6.0 | 10.0 | 0.00 | 0.00 | 0.00 | 91 | 973.4 |
| 20260509125243 | 49 | 234 | 4.0 | 7.0 | 0.00 | 0.00 | 0.00 | 92 | 973.3 |
| 20260509124743 | 49 | 256 | 7.0 | 9.0 | 0.00 | 0.00 | 0.00 | 92 | 973.3 |
| 20260509124243 | 49 | 242 | 4.0 | 8.0 | 0.00 | 0.00 | 0.00 | 92 | 973.4 |
| 20260509123221 | 49 | 278 | 4.0 | 8.0 | 0.00 | 0.00 | 0.00 | 92 | 973.5 |
| 20260509122720 | 49 | 285 | 4.0 | 7.0 | 0.00 | 0.00 | 0.00 | 92 | 973.5 |
| 20260509122220 | 49 | 227 | 2.0 | 3.0 | 0.00 | 0.00 | 0.00 | 93 | 973.5 |
| 20260509121158 | 49 | 254 | 2.0 | 3.0 | 0.00 | 0.00 | 0.00 | 93 | 973.6 |
| 20260509120658 | 49 | 261 | 3.0 | 5.0 | 0.00 | 0.00 | 0.00 | 93 | 973.6 |